Tracking 20621 objects as of 29-Mar-2020
HD Live streaming from Space Station
objects crossing your sky now

DELTA 1 DEB

Track DELTA 1 DEB now!
10-day predictions


NORAD ID: 10251
Int'l Code: 1977-065CC
Perigee: 466.2 km
Apogee: 1,526.8 km
Inclination: 29.0 °
Period: 104.9 minutes
Semi major axis: 7367 km
RCS: 0.0179 m2 (small)
Launch date: July 14, 1977
Source: United States (US)
Launch site: AIR FORCE EASTERN TEST RANGE (AFETR)

Note: This is SATELLITE DEBRIS
aabbcc
Your satellite tracking list
Your tracking list is empty




NASA's NSSDC Master Catalog

Two Line Element Set (TLE):
1 10251U 77065CC  20088.18062841 +.00000420 +00000-0 +39092-4 0  9995
2 10251 028.9762 133.3619 0719780 210.1443 145.5757 13.72850848103798
Source of the keplerian elements: AFSPC